FLOCK 4E'-3 (46819 NORAD) Tracking and Keplerian Element Data

This shows tracking and keplerian element data for the satellite.

Feedback or suggestion? Click here.




ElementValue
Catalog46819
NameFLOCK 4E'-3
Epoch Orbit515
Epoch Day336.92066778
Epoch Year2020
RAAN37.0043
Inclination97.4965
Eccentricity0.0015735
Argument of Perigee182.3883
Mean Anonmoly351.2596
Mean Motion15.1706694
Decay Rate3.534E-05
L11 46819U 20077G 20336.92066778 .00003534 00000-0 18144-3 0 9999
L22 46819 97.4965 37.0043 0015735 182.3883 351.2596 15.17066940 5152

Live tracking and technical data element details for FLOCK 4E'-3 (NORAD 46819). FLOCK 4E'-3 can be tracked NOW for your location showing map with azimuth and elevation plus other details from your city location.

Track the satellite on the map from your city or location and see movement details for azimuth, elevation, latitude, longitude, range, height, and movement on the map or in text.







IsCatalogInMostPopularTable: catalog: 46819, numindb: 10
Update: records affected: 1



GetName: 46819 FLOCK 4E'-3

Hit Count: updated at: Thu, 03 Dec 2020 07:38:56 GMT